Weather in Bol'shoy Bukor

Russia / Perm Krai     56°40′01″N   54°15′22″E
temp.,
°C
wind,
m/s
gust,
m/s
humid.,
%
clouds,
%
prec.,
mm/h
press.,
hPa
HPBL,
m
3 march, wed
wed323:00−3wsw1298100 2.4 99691
02:00−3wsw4109699 0.3 996364
05:00−4wsw2697100 1.0 997185
08:00−7w259890 0.1 997116
11:00−4w259593 0.3 998283
14:00−1sw249798 0.6 998391
17:00−1wsw359799 1.8 998400
20:00−3wnw2797100 1.3 998402
4 march, thu
thu423:00−6nw4109398 1.4 1000448
02:00−10w399686 0.0 999222
05:00−12wsw379788 0.1 1000159
08:00−13sw379794 0.0 999194
11:00−8sw599397 0.7 998531
14:00−5ssw4992100 0.4 996581
17:00−4ssw51095100 1.5 994736
20:00−2sw51196100 1.9 992795
5 march, fri
fri523:00−4sw2796100 2.3 992223
02:00−6wsw3119597 0.0 993392
05:00−6w499598 0.3 996387
08:00−11wsw369799 0.1 998136
11:00−9w2494100 0.1 1000259
14:00−6w2486100 0.0 1000489
17:00−6wnw2485100 0.0 1001573
20:00−11nw2594100 0.0 1002101
6 march, sat
sat623:00−15nw389660 0.0 1006158
02:00−18wnw259855 0.0 1009114
05:00−20w239963 0.0 101169
08:00−20w239990 0.0 101352
11:00−15wsw249482 0.0 1013242
14:00−10wsw249188 0.0 1012430
17:00−9sw349294 0.1 1011403
20:00−15ssw239896 0.0 101026
7 march, sun
sun723:00−16s239889 0.1 100957
02:00−15ssw229797 0.0 100876
05:00−16ssw229799 0.0 100859
08:00−17s2497100 0.0 100795
11:00−13ssw369398 0.1 1008345
14:00−11sw3590100 0.1 1009560
17:00−11sw4688100 0.3 1008757
20:00−16s399587 0.0 1008218